| time (UTC) | temp F | wind direction | speed MPH | gust MPH | rain 1hr in | rain 24hr in | rain mn in | humidity % | barometer mb |
| 20260503004541 | 61 | 324 | 2.0 | 5.0 | 0.00 | 0.00 | 0.00 | 41 | 1017.1 |
| 20260503003052 | 61 | 48 | 3.0 | 8.0 | 0.00 | 0.00 | 0.00 | 42 | 1017.3 |
| 20260503001541 | 60 | 26 | 6.0 | 11.0 | 0.00 | 0.00 | 0.00 | 44 | 1017.4 |
| 20260502234541 | 61 | 180 | 7.0 | 11.0 | 0.00 | 0.00 | 0.00 | 41 | 1017.5 |
| 20260502233041 | 62 | 242 | 6.0 | 12.0 | 0.00 | 0.00 | 0.00 | 41 | 1017.7 |
| 20260502231540 | 61 | 250 | 3.0 | 11.0 | 0.00 | 0.00 | 0.00 | 41 | 1017.9 |
| 20260502224539 | 60 | 120 | 2.0 | 6.0 | 0.00 | 0.00 | 0.00 | 45 | 1018.1 |
| 20260502223039 | 60 | 54 | 5.0 | 9.0 | 0.00 | 0.00 | 0.00 | 43 | 1018.3 |
| 20260502221538 | 60 | 350 | 6.0 | 12.0 | 0.00 | 0.00 | 0.00 | 42 | 1018.7 |
| 20260502214538 | 61 | 207 | 5.0 | 9.0 | 0.00 | 0.00 | 0.00 | 41 | 1018.9 |
| 20260502213041 | 60 | 243 | 2.0 | 6.0 | 0.00 | 0.00 | 0.00 | 44 | 1019.1 |
| 20260502211536 | 59 | 228 | 5.0 | 13.0 | 0.00 | 0.00 | 0.00 | 44 | 1019.3 |
| 20260502204534 | 59 | 309 | 4.0 | 11.0 | 0.00 | 0.00 | 0.00 | 44 | 1019.6 |
| 20260502203041 | 58 | 205 | 5.0 | 8.0 | 0.00 | 0.00 | 0.00 | 44 | 1019.7 |
| 20260502201534 | 58 | 342 | 6.0 | 11.0 | 0.00 | 0.00 | 0.00 | 46 | 1019.8 |
| 20260502194534 | 58 | 333 | 4.0 | 11.0 | 0.00 | 0.00 | 0.00 | 45 | 1019.9 |
| 20260502193031 | 57 | 350 | 5.0 | 11.0 | 0.00 | 0.00 | 0.00 | 46 | 1020.1 |
| 20260502191530 | 58 | 234 | 4.0 | 14.0 | 0.00 | 0.00 | 0.00 | 46 | 1020.2 |
| 20260502184545 | 56 | 324 | 6.0 | 13.0 | 0.00 | 0.00 | 0.00 | 51 | 1020.6 |
| 20260502183044 | 56 | 10 | 3.0 | 9.0 | 0.00 | 0.00 | 0.00 | 52 | 1020.7 |
| 20260502181603 | 56 | 20 | 8.0 | 14.0 | 0.00 | 0.00 | 0.00 | 50 | 1020.7 |
| 20260502163047 | 54 | 300 | 9.0 | 14.0 | 0.00 | 0.00 | 0.00 | 53 | 1020.7 |
| 20260502161546 | 54 | 317 | 7.0 | 12.0 | 0.00 | 0.00 | 0.00 | 56 | 1020.8 |
| 20260502151520 | 50 | 271 | 9.0 | 12.0 | 0.00 | 0.00 | 0.00 | 61 | 1020.9 |
| 20260502123047 | 45 | 30 | 1.0 | 3.0 | 0.00 | 0.00 | 0.00 | 62 | 1019.9 |
| 20260502121546 | 45 | 30 | 2.0 | 3.0 | 0.00 | 0.00 | 0.00 | 60 | 1019.8 |
| 20260502114509 | 45 | 30 | 0.0 | 2.0 | 0.00 | 0.00 | 0.00 | 60 | 1019.7 |
| 20260502113007 | 45 | 30 | 2.0 | 3.0 | 0.00 | 0.00 | 0.00 | 59 | 1019.8 |
| 20260502111507 | 45 | 30 | 3.0 | 4.0 | 0.00 | 0.00 | 0.00 | 59 | 1019.5 |
| 20260502104506 | 47 | 30 | 4.0 | 9.0 | 0.00 | 0.00 | 0.00 | 57 | 1019.6 |
| 20260502103009 | 47 | 51 | 8.0 | 10.0 | 0.00 | 0.00 | 0.00 | 57 | 1019.1 |
| 20260502101502 | 46 | 53 | 7.0 | 10.0 | 0.00 | 0.00 | 0.00 | 58 | 1018.8 |
| 20260502064552 | 52 | 227 | 4.0 | 6.0 | 0.00 | 0.00 | 0.00 | 45 | 1016.9 |
| 20260502063037 | 51 | 244 | 4.0 | 5.0 | 0.00 | 0.00 | 0.00 | 46 | 1017.0 |
| 20260502061533 | 50 | 244 | 4.0 | 5.0 | 0.00 | 0.00 | 0.00 | 46 | 1017.0 |
| 20260502054528 | 49 | 230 | 3.0 | 5.0 | 0.00 | 0.00 | 0.00 | 47 | 1016.9 |
| 20260502053023 | 50 | 224 | 3.0 | 7.0 | 0.00 | 0.00 | 0.00 | 46 | 1016.9 |
| 20260502051530 | 49 | 239 | 4.0 | 7.0 | 0.00 | 0.00 | 0.00 | 45 | 1016.9 |
| 20260502044537 | 51 | 238 | 2.0 | 7.0 | 0.00 | 0.00 | 0.00 | 44 | 1017.0 |
| 20260502043031 | 53 | 217 | 5.0 | 7.0 | 0.00 | 0.00 | 0.00 | 40 | 1017.0 |
| 20260502041533 | 54 | 232 | 2.0 | 4.0 | 0.00 | 0.00 | 0.00 | 39 | 1016.8 |
| 20260502034530 | 53 | 232 | 2.0 | 4.0 | 0.00 | 0.00 | 0.00 | 41 | 1016.6 |
| 20260502033029 | 56 | 225 | 3.0 | 5.0 | 0.00 | 0.00 | 0.00 | 38 | 1016.6 |
| 20260502031529 | 58 | 236 | 3.0 | 4.0 | 0.00 | 0.00 | 0.00 | 37 | 1016.4 |
| 20260502024531 | 62 | 360 | 1.0 | 4.0 | 0.00 | 0.00 | 0.00 | 29 | 1016.2 |
| 20260502023029 | 61 | 13 | 2.0 | 3.0 | 0.00 | 0.00 | 0.00 | 31 | 1016.1 |
| 20260502021530 | 62 | 13 | 0.0 | 2.0 | 0.00 | 0.00 | 0.00 | 31 | 1015.9 |
| 20260502014541 | 62 | 13 | 2.0 | 4.0 | 0.00 | 0.00 | 0.00 | 35 | 1015.8 |
| 20260502013029 | 64 | 13 | 2.0 | 4.0 | 0.00 | 0.00 | 0.00 | 31 | 1015.7 |
| 20260502011527 | 65 | 13 | 3.0 | 6.0 | 0.00 | 0.00 | 0.00 | 30 | 1015.8 |